Date String (YYYY-MM-DD hh:mm:ss) UTC,Instrument flags,absolute air pressure of the measurement (hPa),sample flow rate (lpm),inlet stack bypass flow (lpm),air temperature of the measurement (°C),ambient temperature measured by the external sensor (°C),aerosol sample conditioner tube jacket temperature (°C),OPC LED temperature (°C),internal box temperature (°C),relative humidity of the measurement (%),span deviation,mass concentration of particles derived from Lorenz-Mie calculation of OPC scattering (μg/m³),mass concentration of particles derived from Lorenz-Mie calculation of OPC scattering (μg/m³),mass concentration of particles derived from Lorenz-Mie calculation of OPC scattering (μg/m³)
DateTimeUTC,F1_M11,P_M11,Q1_M11,Q2_M11,T1_M11,T2_M11,T3_M11,T4_M11,T5_M11,U1_M11,ZSPAN_M11,X2_M11,X0_M11,X1_M11
2023-11-22 21:00:00,SystemResetWarning,0828.3,5.01,000.00,025.9,021.9,000.0,034.0,026.9,8.6,0000.0,0001.03,0009.21,0000.44
2023-11-22 21:01:00,SystemResetWarning,0828.3,5.01,000.00,025.7,022.3,000.0,034.0,026.6,8.7,0000.0,0001.06,0009.05,0000.44
2023-11-22 21:02:00,SystemResetWarning,0828.3,4.99,000.00,025.6,022.7,000.0,034.0,026.6,8.7,0000.0,0001.02,0008.95,0000.44
2023-11-22 21:03:00,SystemResetWarning,0828.4,5.00,000.00,025.6,023.1,000.0,033.9,026.8,8.7,0000.0,0001.06,0008.70,0000.44
2023-11-22 21:04:00,SystemResetWarning,0828.3,5.00,000.00,025.6,023.5,000.0,033.9,026.9,8.7,0000.0,0001.10,0008.18,0000.43
2023-11-22 21:05:00,SystemResetWarning,0828.3,5.00,000.00,025.7,023.8,000.0,033.9,027.0,8.7,0000.0,0001.13,0008.39,0000.43
2023-11-22 21:06:00,SystemResetWarning,0828.4,5.00,000.00,025.7,024.1,000.0,033.9,027.1,8.7,0000.0,0001.13,0008.57,0000.44
2023-11-22 21:07:00,SystemResetWarning,0828.4,5.00,000.00,025.7,024.4,000.0,033.9,027.2,8.7,0000.0,0001.12,0008.32,0000.45
2023-11-22 21:08:00,SystemResetWarning,0828.3,5.00,000.00,025.8,024.6,000.0,033.9,027.3,8.7,0000.0,0001.06,0007.60,0000.44
2023-11-22 21:09:00,SystemResetWarning,0828.3,4.99,000.00,025.9,024.8,000.0,033.9,027.4,8.6,0000.0,0001.01,0007.45,0000.45
2023-11-22 21:10:00,SystemResetWarning,0828.3,4.99,000.00,025.9,024.9,000.0,033.9,027.5,8.6,0000.0,0000.98,0007.63,0000.45
2023-11-22 21:11:00,SystemResetWarning,0828.3,5.00,000.00,026.0,025.1,000.0,034.0,027.5,8.6,0000.0,0000.99,0006.61,0000.45
2023-11-22 21:12:00,SystemResetWarning,0828.3,5.01,000.00,026.0,025.2,000.0,034.0,027.6,8.6,0000.0,0000.98,0006.01,0000.44
2023-11-22 21:13:00,SystemResetWarning,0828.3,5.00,000.00,026.0,025.3,000.0,034.0,027.6,8.6,0000.0,0000.98,0006.22,0000.44
2023-11-22 21:14:00,SystemResetWarning,0828.3,5.01,000.00,026.1,025.4,000.0,034.0,027.7,8.5,0000.0,0000.94,0006.30,0000.45
2023-11-22 21:15:00,SystemResetWarning,0828.3,4.97,000.00,026.1,024.4,000.0,034.1,027.6,8.5,0000.0,0000.92,0005.83,0000.45
2023-11-22 21:16:00,SystemResetWarning,0828.2,5.01,000.00,026.0,022.4,000.0,034.1,027.1,8.5,0000.0,0000.90,0005.79,0000.46
2023-11-22 21:17:00,SystemResetWarning,0828.2,5.01,000.00,025.8,021.9,000.0,034.0,026.9,8.6,0000.0,0000.90,0005.31,0000.46
2023-11-22 21:18:00,SystemResetWarning,0828.2,5.00,000.00,025.7,022.1,000.0,034.0,026.6,8.6,0000.0,0000.89,0005.15,0000.46
2023-11-22 21:19:00,SystemResetWarning,0828.3,5.00,000.00,025.6,022.6,000.0,033.9,026.6,8.7,0000.0,0000.89,0005.05,0000.47
2023-11-22 21:20:00,SystemResetWarning,0828.3,5.00,000.00,025.6,023.0,000.0,033.9,026.7,8.8,0000.0,0000.93,0005.02,0000.47
2023-11-22 21:21:00,SystemResetWarning,0828.3,5.00,000.00,025.6,023.4,000.0,033.8,026.8,8.8,0000.0,0001.00,0006.32,0000.48
2023-11-22 21:22:00,SystemResetWarning,0828.3,5.00,000.00,025.6,023.7,000.0,033.8,026.9,8.8,0000.0,0001.03,0006.24,0000.48
2023-11-22 21:23:00,SystemResetWarning,0828.2,5.01,000.00,025.6,024.0,000.0,033.8,027.0,8.7,0000.0,0001.01,0007.49,0000.48
2023-11-22 21:24:00,SystemResetWarning,0828.2,4.99,000.00,025.7,024.3,000.0,033.8,027.1,8.6,0000.0,0001.04,0008.09,0000.49
2023-11-22 21:25:00,SystemResetWarning,0828.2,4.99,000.00,025.7,024.5,000.0,033.8,027.2,8.6,0000.0,0001.10,0008.48,0000.50
2023-11-22 21:26:00,SystemResetWarning,0828.1,4.99,000.00,025.8,024.7,000.0,033.9,027.3,8.6,0000.0,0001.14,0009.29,0000.50
2023-11-22 21:27:00,SystemResetWarning,0828.2,5.00,000.00,025.8,024.8,000.0,033.9,027.4,8.6,0000.0,0001.17,0010.62,0000.51
2023-11-22 21:28:00,SystemResetWarning,0828.2,5.00,000.00,025.9,025.0,000.0,033.9,027.5,8.6,0000.0,0001.21,0011.95,0000.51
2023-11-22 21:29:00,SystemResetWarning,0828.2,5.01,000.00,025.9,025.1,000.0,033.9,027.5,8.5,0000.0,0001.24,0013.20,0000.51
2023-11-22 21:30:00,SystemResetWarning,0828.2,5.00,000.00,026.0,025.2,000.0,034.0,027.6,8.5,0000.0,0001.28,0014.66,0000.51
2023-11-22 21:31:00,SystemResetWarning,0828.2,5.01,000.00,026.0,025.3,000.0,034.0,027.6,8.5,0000.0,0001.34,0015.46,0000.51
2023-11-22 21:32:00,SystemResetWarning,0828.2,4.98,000.00,026.1,025.4,000.0,034.0,027.7,8.4,0000.0,0001.35,0017.00,0000.49
2023-11-22 21:33:00,SystemResetWarning,0828.2,4.99,000.00,026.1,024.7,000.0,034.0,027.6,8.4,0000.0,0001.34,0016.46,0000.50
2023-11-22 21:34:00,SystemResetWarning,0828.1,5.00,000.00,026.0,022.7,000.0,034.0,027.2,8.4,0000.0,0001.39,0016.31,0000.51
2023-11-22 21:35:00,SystemResetWarning,0828.1,5.00,000.00,025.8,021.8,000.0,033.9,026.9,8.5,0000.0,0001.41,0016.69,0000.51
2023-11-22 21:36:00,SystemResetWarning,0828.1,5.02,000.00,025.7,022.0,000.0,033.9,026.6,8.6,0000.0,0001.42,0016.74,0000.50
2023-11-22 21:37:00,SystemResetWarning,0828.1,4.99,000.00,025.5,022.4,000.0,033.9,026.5,8.7,0000.0,0001.38,0016.63,0000.50
2023-11-22 21:38:00,SystemResetWarning,0828.1,5.00,000.00,025.5,022.8,000.0,033.8,026.6,8.7,0000.0,0001.38,0015.41,0000.50
2023-11-22 21:39:00,SystemResetWarning,0828.1,5.00,000.00,025.5,023.2,000.0,033.8,026.7,8.6,0000.0,0001.36,0014.40,0000.50
2023-11-22 21:40:00,SystemResetWarning,0828.1,5.00,000.00,025.5,023.6,000.0,033.8,026.8,8.7,0000.0,0001.35,0014.34,0000.50
2023-11-22 21:41:00,SystemResetWarning,0828.1,5.00,000.00,025.6,023.9,000.0,033.8,026.9,8.6,0000.0,0001.40,0013.86,0000.51
2023-11-22 21:42:00,SystemResetWarning,0828.1,4.99,000.00,025.6,024.1,000.0,033.8,027.0,8.6,0000.0,0001.38,0014.23,0000.51
2023-11-22 21:43:00,SystemResetWarning,0828.2,5.00,000.00,025.6,024.3,000.0,033.8,027.1,8.6,0000.0,0001.35,0012.13,0000.52
2023-11-22 21:44:00,SystemResetWarning,0828.2,5.00,000.00,025.7,024.5,000.0,033.8,027.2,8.5,0000.0,0001.35,0012.11,0000.54
2023-11-22 21:45:00,SystemResetWarning,0828.2,4.99,000.00,025.7,024.7,000.0,033.8,027.2,8.5,0000.0,0001.32,0011.56,0000.53
2023-11-22 21:46:00,SystemResetWarning,0828.2,5.00,000.00,025.8,024.8,000.0,033.8,027.3,8.5,0000.0,0001.28,0010.41,0000.53
2023-11-22 21:47:00,SystemResetWarning,0828.3,4.99,000.00,025.8,025.0,000.0,033.9,027.4,8.5,0000.0,0001.27,0010.75,0000.54
2023-11-22 21:48:00,SystemResetWarning,0828.3,5.01,000.00,025.9,025.1,000.0,033.9,027.5,8.4,0000.0,0001.31,0010.58,0000.54
2023-11-22 21:49:00,SystemResetWarning,0828.3,5.01,000.00,025.9,025.2,000.0,033.9,027.5,8.4,0000.0,0001.29,0010.32,0000.54
2023-11-22 21:50:00,SystemResetWarning,0828.3,5.01,000.00,026.0,025.3,000.0,033.9,027.6,8.4,0000.0,0001.25,0010.69,0000.54
2023-11-22 21:51:00,SystemResetWarning,0828.3,4.99,000.00,026.0,025.3,000.0,034.0,027.6,8.4,0000.0,0001.25,0010.20,0000.55
2023-11-22 21:52:00,SystemResetWarning,0828.2,5.00,000.00,026.1,025.4,000.0,034.0,027.7,8.4,0000.0,0001.23,0010.47,0000.55
2023-11-22 21:53:00,SystemResetWarning,0828.2,4.98,000.00,026.1,024.2,000.0,034.0,027.5,8.4,0000.0,0001.21,0009.42,0000.57
2023-11-22 21:54:00,SystemResetWarning,0828.1,5.01,000.00,025.9,022.8,000.0,034.0,027.2,8.5,0000.0,0001.22,0009.34,0000.57
2023-11-22 21:55:00,SystemResetWarning,0828.2,5.01,000.00,025.8,022.7,000.0,034.0,026.9,8.5,0000.0,0001.21,0009.07,0000.57
2023-11-22 21:56:00,SystemResetWarning,0828.1,4.99,000.00,025.7,023.0,000.0,033.9,026.7,8.7,0000.0,0001.23,0009.84,0000.59
2023-11-22 21:57:00,SystemResetWarning,0828.2,5.00,000.00,025.7,023.4,000.0,033.9,026.9,8.7,0000.0,0001.23,0009.92,0000.58
2023-11-22 21:58:00,SystemResetWarning,0828.2,5.00,000.00,025.7,023.7,000.0,033.9,027.0,8.7,0000.0,0001.20,0009.34,0000.58
2023-11-22 21:59:00,SystemResetWarning,0828.2,5.00,000.00,025.7,024.0,000.0,033.9,027.1,8.6,0000.0,0001.19,0009.53,0000.57
